TIME,DELAY(SENSOR),PRES,T(CTD),SAL,OXYGEN,RAWTEMP,T(OPTODE),TCPHASE,TURBIDITY,TURBIDITY_GAIN,FLUOR,BETA,CDOM,ED411.5,ED443.8,ED489.6,PAR,COMP,TILT,TILTY(TILT),CHECK
1341669117,6468,239.2700042724609400,4.9130001068115230,34.9855995178222660,350.6048889160156000,761.4841918945312000,4.8843212127685550,34.0833282470703100,16,3,48,104,64,2147244479,2147560598,2147574321,2147361631,206,0,-12,32647
1341669177,6467,236.2100067138672000,4.9127001762390140,34.9856986999511700,350.6007995605469000,761.4816284179688000,4.8844151496887210,34.0836486816406250,21,3,48,105,64,2147244260,2147559030,2147572945,2147361622,3394,0,-12,26245
1341669237,6468,233.1100006103515600,4.9121999740600590,34.9860992431640600,350.6904907226562500,761.4805908203125000,4.8844490051269530,34.0803604125976560,14,3,49,101,65,2147243935,2147559428,2147571670,2147361325,2955,0,-12,41902
1341669297,6466,229.9600067138672000,4.9117999076843260,34.9860992431640600,350.6903991699219000,761.4813232421875000,4.8844242095947270,34.0806503295898440,17,3,49,104,64,2147243276,2147558239,2147574412,2147359725,2596,0,-12,59287
1341669357,6466,226.8200073242187500,4.9123997688293460,34.9852981567382800,350.7894897460937500,761.4879760742188000,4.8841881752014160,34.0771217346191400,16,3,49,101,64,2147242124,2147561082,2147575734,2147360355,2366,0,-12,17952
1341669419,6468,223.5800018310547000,4.9116997718811035,34.9860992431640600,350.7619018554687500,761.4899291992188000,4.8841209411621090,34.0781288146972660,16,3,49,103,63,2147243071,2147557613,2147575739,2147363496,2095,0,-12,35486
1341669479,6503,220.5299987792968800,4.9112000465393070,34.9860992431640600,350.7470092773437500,761.4965820312500000,4.8838877677917480,34.0787696838378900,16,3,48,106,64,2147245051,2147559177,2147576822,2147361691,1824,0,-12,64952
1341669539,6468,217.5000000000000000,4.9113998413085940,34.9856986999511700,350.6213073730469000,761.5001220703125000,4.8837637901306150,34.0831718444824200,16,3,48,101,64,2147244342,2147562445,2147577882,2147362870,1553,0,-12,36569
1341669599,6466,214.5099945068359400,4.9107999801635740,34.9860992431640600,350.7717895507812500,761.5073242187500000,4.8835120201110840,34.0784111022949200,16,3,48,105,64,2147243976,2147560049,2147578354,2147360154,1292,0,-12,34778
1341669659,6467,211.5200042724609400,4.9106001853942870,34.9860992431640600,350.6958007812500000,761.5131225585938000,4.8833079338073730,34.0809593200683600,16,3,48,104,64,2147243318,2147562508,2147579611,2147361672,1016,0,-12,31567
1341669723,6467,208.3800048828125000,4.9106001853942870,34.9859008789062500,350.7916870117187500,761.5200805664062000,4.8830637931823730,34.0777282714843750,16,3,50,109,64,2147244237,2147558495,2147579752,2147363418,657,0,-12,31198
1341669783,6468,205.4299926757812500,4.9106998443603520,34.9856986999511700,350.7904968261719000,761.5249023437500000,4.8828959465026855,34.0777893066406250,16,3,49,106,64,2147245814,2147557577,2147577398,2147362857,290,0,-12,48776
1341669847,6467,202.3300018310547000,4.9100999832153320,34.9860992431640600,350.8911132812500000,761.5291748046875000,4.8827481269836430,34.0747489929199200,16,3,48,103,64,2147244534,2147557759,2147581393,2147364698,3500,0,-12,61113
1341669907,6466,199.4299926757812500,4.9102997779846190,34.9860000610351560,350.7901000976562500,761.5288696289062000,4.8827571868896480,34.0782890319824200,16,3,49,107,64,2147240658,2147561024,2147582875,2147362367,3133,0,-11,36419
1341669971,6469,196.4199981689453000,4.9103999137878420,34.9856986999511700,350.5315856933594000,761.5317993164062000,4.8826560974121090,34.0868110656738300,16,3,48,107,64,2147239354,2147560040,2147581421,2147360909,2828,0,-12,39881
1341670033,6468,193.5099945068359400,4.9100999832153320,34.9859008789062500,350.5604858398437500,761.5338745117188000,4.8825840950012210,34.0860099792480500,16,3,50,111,64,2147243565,2147562422,2147580561,2147360886,2575,0,-12,27048
1341670097,6468,190.5299987792968800,4.9103999137878420,34.9855003356933600,350.4440002441406000,761.5347900390625000,4.8825511932373050,34.0899581909179700,16,3,48,107,64,2147242879,2147560516,2147582865,2147362321,2301,0,-12,14373
1341670157,6468,187.7400054931640600,4.9099001884460450,34.9859008789062500,350.5137939453125000,761.5383911132812000,4.8824248313903810,34.0878715515136700,16,3,50,110,64,2147245545,2147558368,2147583574,2147364013,2065,0,-12,62686
1341670221,6504,184.8300018310547000,4.9102001190185550,34.9858016967773440,350.3659973144531000,761.5307006835938000,4.8826937675476070,34.0924110412597660,16,3,50,115,64,2147246088,2147561302,2147586714,2147365106,1848,0,-12,14616
1341670281,6469,182.1300048828125000,4.9099998474121090,34.9860992431640600,350.4284973144531000,761.5328979492188000,4.8826179504394530,34.0904197692871100,16,3,50,111,63,2147245087,2147561764,2147585545,2147362874,1591,0,-12,37019
1341670345,6465,179.2500000000000000,4.9098000526428220,34.9860992431640600,350.3735961914062500,761.5360717773438000,4.8825039863586430,34.0922088623046900,16,3,48,110,63,2147244941,2147559894,2147585119,2147361700,1334,0,-12,48360
1341670405,6466,176.5599975585937500,4.9093999862670900,34.9864006042480500,350.2316894531250000,761.5399780273438000,4.8823680877685550,34.0969581604003900,16,3,48,111,64,2147243556,2147560123,2147587254,2147363903,1087,0,-12,41359
1341670469,6468,173.7200012207031200,4.9096999168396000,34.9859008789062500,350.1404113769531000,761.5460815429688000,4.8821558952331540,34.1005592346191400,29,3,49,111,64,2147243629,2147562243,2147586673,2147367542,787,0,-12,21855
1341670529,6467,171.0599975585937500,4.9095001220703125,34.9860000610351560,350.2883911132812500,761.5433959960938000,4.8822498321533200,34.0952682495117200,16,3,48,109,64,2147242248,2147561631,2147589379,2147362363,510,0,-12,39666
1341670593,6467,168.2100067138672000,4.9099998474121090,34.9855995178222660,350.2338867187500000,761.5410766601562000,4.8823299407958980,34.0970802307128900,16,3,50,111,64,2147245865,2147563107,2147590988,2147364630,172,0,-12,5639
1341670655,6469,165.4400024414062500,4.9099001884460450,34.9855995178222660,350.1075134277344000,761.5413208007812000,4.8823242187500000,34.1012115478515600,16,3,50,111,64,2147247711,2147561508,2147594367,2147364813,3314,0,-12,63398
1341670719,6466,162.5700073242187500,4.9096999168396000,34.9858016967773440,350.0921020507812500,761.5424194335938000,4.8822841644287110,34.1019706726074200,16,3,49,112,64,2147247295,2147561151,2147594975,2147365457,2998,0,-12,14857
1341670779,6468,159.9100036621093800,4.9095997810363770,34.9860992431640600,350.1283874511719000,761.5358276367188000,4.8825168609619140,34.1006507873535160,16,3,49,112,63,2147242692,2147561315,2147596758,2147363410,2630,0,-12,64275
1341670843,6468,157.0700073242187500,4.9102001190185550,34.9854011535644500,350.2203979492187500,761.5349731445312000,4.8825421333312990,34.0974311828613300,16,3,49,114,64,2147244680,2147562563,2147601018,2147366244,2394,0,-12,59032
1341670903,6469,154.3899993896484400,4.9099998474121090,34.9856986999511700,350.3476867675781000,761.5330810546875000,4.8826079368591310,34.0929489135742200,16,3,50,108,64,2147245046,2147565444,2147603556,2147365471,2224,0,-12,59223
1341670967,6469,151.5500030517578000,4.9099998474121090,34.9856986999511700,350.3015136718750000,761.5344238281250000,4.8825650215148930,34.0947113037109400,54,3,50,113,64,2147244780,2147562966,2147608214,2147367117,2101,0,-12,57517
1341671027,6468,148.8800048828125000,4.9100999832153320,34.9859008789062500,350.3287963867187500,761.5261230468750000,4.8828539848327640,34.0937805175781250,16,3,50,121,64,2147243419,2147561997,2147608544,2147367903,1936,0,-12,6479
1341671091,6465,146.0800018310547000,4.9109001159667970,34.9855995178222660,350.3082885742187500,761.5037231445312000,4.8836379051208500,34.0936813354492200,16,3,50,113,64,2147241887,2147565818,2147618641,2147369343,1720,0,-12,9491
1341671151,6468,143.4499969482422000,4.9107999801635740,34.9860992431640600,350.1705932617187500,761.4982910156250000,4.8838272094726560,34.0983886718750000,16,3,50,115,64,2147242043,2147564415,2147622404,2147371858,1520,0,-12,44645
1341671215,6468,140.6600036621093800,4.9113998413085940,34.9858016967773440,350.1210021972656000,761.4863891601562000,4.8842468261718750,34.0999488830566400,16,3,50,122,64,2147242742,2147565896,2147628841,2147370976,1249,0,-12,52316
1341671277,6468,138.0299987792968800,4.9141001701354980,34.9852981567382800,350.0292968750000000,761.4251708984375000,4.8863849639892580,34.1017303466796900,16,3,50,120,64,2147244781,2147567309,2147633996,2147370546,965,0,-12,35305
1341671341,6468,135.3099975585937500,4.9144001007080080,34.9855003356933600,349.8251037597656000,761.4057006835938000,4.8870701789855960,34.1081886291503900,16,3,50,121,64,2147243761,2147566207,2147639249,2147370102,634,0,-12,17969
1341671401,6467,132.7799987792968800,4.9149999618530270,34.9856986999511700,349.6918029785156000,761.3831176757812000,4.8878607749938965,34.1120681762695300,16,3,49,116,64,2147242962,2147566436,2147641641,2147371584,240,0,-12,11221
1341671465,6504,130.1100006103515600,4.9152998924255370,34.9855995178222660,349.7929077148437500,761.3704833984375000,4.8883018493652340,34.1085586547851560,16,3,50,122,64,2147243940,2147568122,2147650614,2147374838,3585,0,-11,40375
1341671525,6468,127.6600036621093800,4.9168000221252440,34.9851989746093750,349.8902893066406000,761.3400268554688000,4.8893699645996090,34.1048088073730500,59,3,50,121,65,2147245014,2147570811,2147658079,2147376333,3288,0,-12,9347
1341671589,6468,125.0199966430664000,4.9168000221252440,34.9855995178222660,349.8696899414062500,761.3228149414062000,4.8899707794189450,34.1049690246582000,16,3,50,117,64,2147242925,2147569755,2147662943,2147378957,2995,0,-12,45891
1341671649,6467,122.5999984741211000,4.9193000793457030,34.9850006103515600,349.9291992187500000,761.2651977539062000,4.8919892311096190,34.1019096374511700,19,3,50,116,64,2147242733,2147569183,2147671222,2147376050,2858,0,-12,59373
1341671713,6466,120.0199966430664000,4.9203000068664550,34.9850997924804700,349.9339904785156000,761.2260742187500000,4.8933558464050290,34.1008110046386700,16,3,50,118,66,2147243542,2147572941,2147689097,2147378532,2558,0,-12,19280
1341671773,6468,117.5899963378906200,4.9222998619079590,34.9850006103515600,349.9895019531250000,761.1782226562500000,4.8950371742248535,34.0980911254882800,16,3,50,116,64,2147242267,2147573736,2147702610,2147379981,2308,0,-12,24814
1341671837,6466,114.9499969482421900,4.9222002029418945,34.9852981567382800,350.0862121582031000,761.1627807617188000,4.8955750465393070,34.0947914123535160,16,3,50,121,64,2147244868,2147578911,2147715300,2147379405,2265,0,-12,47464
1341671899,6467,112.4199981689453100,4.9254999160766600,34.9846992492675800,350.0343933105469000,761.0922241210938000,4.8980450630187990,34.0948982238769500,12,3,50,118,64,2147243459,2147579748,2147737846,2147385019,2104,0,-12,63202
1341671963,6466,109.8099975585937500,4.9285998344421390,34.9846992492675800,349.8272094726562500,760.9978027343750000,4.9013481140136720,34.1001396179199200,11,3,50,124,64,2147244749,2147583386,2147761603,2147391226,1896,0,-12,21019
1341672023,6468,107.4000015258789000,4.9292001724243160,34.9851989746093750,349.8774108886719000,760.9774169921875000,4.9020628929138180,34.0978202819824200,16,3,50,130,64,2147245051,2147583208,2147776717,2147391450,1679,0,-12,36797
1341672087,6467,104.8700027465820300,4.9338998794555660,34.9841003417968750,349.8030090332031000,760.8743286132812000,4.9056701660156250,34.0986518859863300,11,3,50,121,65,2147246491,2147591779,2147791712,2147396543,1558,0,-12,26276
1341672147,6466,102.5000000000000000,4.9349999427795410,34.9845008850097660,349.7901916503906000,760.8110961914062000,4.9078850746154785,34.0975303649902340,48,3,50,120,66,2147242897,2147592548,2147816840,2147399839,1371,0,-12,28462
1341672239,6467,97.9599990844726600,4.9361000061035160,34.9844017028808600,349.9885864257812500,760.8007202148438000,4.9082489013671875,34.0904998779296900,21,3,50,123,66,2147249485,2147601850,2147849521,2147407177,889,0,-12,34476
1341672301,6469,93.9499969482421900,4.9386000633239750,34.9844017028808600,350.1697998046875000,760.7324218750000000,4.9106388092041020,34.0833396911621100,16,3,50,123,64,2147249216,2147607712,2147893416,2147413101,457,0,-12,20466
1341672365,6466,89.7099990844726600,4.9545001983642580,34.9841003417968750,349.9041137695312500,760.2797851562500000,4.9264769554138180,34.0834884643554700,20,3,50,126,66,2147248799,2147618106,2147942737,2147423236,87,0,-12,64657
1341672425,6467,85.6900024414062500,4.9692001342773440,34.9840011596679700,349.8174133300781000,759.8779296875000000,4.9405441284179690,34.0783195495605500,16,3,50,126,64,2147251560,2147633594,2148020584,2147441590,3224,0,-12,12265
1341672513,6468,80.2900009155273400,5.0142002105712890,34.9846992492675800,349.1083068847656000,758.5567016601562000,4.9867529869079590,34.0761489868164060,16,3,52,130,65,2147258728,2147656950,2148148868,2147467620,2542,0,-12,36803
1341672575,6467,77.3199996948242200,5.0352001190185550,34.9854011535644500,348.9982910156250000,758.0264892578125000,5.0052909851074220,34.0693283081054700,24,3,54,128,65,2147267537,2147684040,2148231574,2147487817,2137,0,-12,49003
1341672639,6465,74.3899993896484400,5.0492000579833980,34.9860000610351560,349.0639953613281000,757.6029052734375000,5.0201001167297360,34.0588798522949200,44,3,54,125,64,2147269357,2147714362,2148359409,2147513197,2045,0,-12,3714
1341672699,6468,71.6800003051757800,5.0620999336242680,34.9865989685058600,348.9809875488281000,757.2633056640625000,5.0319690704345700,34.0549392700195300,16,3,55,127,64,2147279213,2147744548,2148476506,2147542975,1847,0,-12,9277
1341672763,6465,68.8499984741211000,5.0776000022888180,34.9869995117187500,349.0103149414062500,756.8090820312500000,5.0478401184082030,34.0448799133300800,16,3,55,128,64,2147287153,2147775648,2148618198,2147576050,1502,0,-12,2633
1341672823,6468,66.2399978637695300,5.0864000320434570,34.9882011413574200,349.0574951171875000,756.5241699218750000,5.0577931404113770,34.0377807617187500,15,3,56,131,64,2147298650,2147815432,2148759131,2147612104,1467,0,-12,6396
1341672887,6466,63.5800018310546900,5.1027002334594730,34.9884986877441400,349.2189941406250000,756.0498046875000000,5.0743680000305180,34.0229606628418000,16,3,55,128,65,2147311953,2147857284,2148928593,2147658363,1313,0,-12,14233
1341672949,6466,61.0800018310546900,5.1241002082824710,34.9888992309570300,349.1434020996094000,755.4973144531250000,5.0936617851257320,34.0145301818847660,13,3,58,132,66,2147327675,2147918788,2149145311,2147718188,1110,0,-12,7630
1341673013,6468,58.5400009155273440,5.1550998687744140,34.9897994995117200,349.1918029785156000,754.6790771484375000,5.1222319602966310,33.9968986511230500,16,3,57,133,66,2147355085,2147993453,2149419117,2147795693,775,0,-12,56623
1341673073,6468,56.2099990844726560,5.1771001815795900,34.9906005859375000,349.2314147949219000,754.0352172851562000,5.1447091102600100,33.9828300476074200,16,3,60,133,65,2147375386,2148029878,2149513686,2147831136,492,0,-12,17208
1341673160,6503,52.3100013732910160,5.2209000587463380,34.9906005859375000,349.1050109863281000,752.3989257812500000,5.2017941474914550,33.9551811218261700,15,3,69,142,64,2147427501,2148157462,2149882938,2147958166,3535,0,-12,39932
1341673222,6466,48.7299995422363300,5.2452998161315920,34.9912986755371100,349.7943115234375000,752.0012207031250000,5.2156620025634770,33.9243812561035160,16,3,72,148,65,2147492868,2148292602,2150295798,2148106303,2914,0,-12,40647
1341673286,6468,44.9700012207031250,5.3379998207092285,34.9925003051757800,349.4920043945312500,749.4312744140625000,5.3052248954772950,33.8840904235839840,16,3,90,158,65,2147616836,2148562043,2151092566,2148389082,2922,0,-12,49016
1341673346,6467,41.5099983215332000,5.3873000144958500,34.9963989257812500,350.3619995117187500,747.8397216796875000,5.3606448173522950,33.8243293762207000,25,3,106,159,65,2147756744,2148809458,2151767442,2148660493,2821,0,-11,29721
1341673410,6470,37.7999992370605500,5.5293998718261720,34.9962997436523440,351.0488891601562500,743.8776855468750000,5.4984421730041500,33.7246513366699200,20,3,170,197,65,2147987574,2149192406,2152728388,2149070139,2780,0,-11,55542
1341673472,6470,34.4099998474121100,5.6086997985839840,34.9992980957031250,352.6383056640625000,741.5889892578125000,5.5779380798339840,33.6277389526367200,25,3,198,213,66,2148351570,2149773594,2154180058,2149684863,2196,0,-12,54882
1341673536,6505,30.9799995422363280,5.6707000732421875,35.0001983642578100,353.8254089355469000,739.3734741210938000,5.6548180580139160,33.5457496643066400,30,3,222,232,65,2148935825,2150635163,2156150400,2150579510,1818,0,-11,21833
1341673598,6469,27.8099994659423830,5.8979997634887695,35.0032997131347660,354.6872863769531000,733.0531005859375000,5.8737530708312990,33.3973197937011700,41,3,334,329,64,2149672529,2151646097,2158288082,2151575049,1598,0,-12,35550
1341673662,6470,24.8500003814697270,6.0058999061584470,35.0052986145019500,357.7319946289062500,730.0051879882812000,5.9791278839111330,33.2402305603027340,49,3,444,409,65,2150905567,2153297700,2161487492,2153060927,1596,0,-12,40121
1341673724,6471,22.2199993133544920,6.2026000022888180,35.0068016052246100,360.4173889160156000,724.5742187500000000,6.1665630340576170,33.0513381958007800,59,3,505,480,65,2152707784,2155642673,2165866106,2155064767,1443,0,-12,41604
1341673788,6469,20.1000003814697270,6.8280000686645510,35.0046997070312500,363.8923950195312500,709.1384277343750000,6.6970438957214355,32.6565895080566400,89,3,565,647,66,2154893832,2158266463,2170150326,2157075158,798,0,-11,9581
1341673872,6505,18.4300003051757800,7.6944999694824220,35.0102005004882800,374.5268859863281000,682.4340209960938000,7.6072039604187010,31.8518104553222660,107,3,566,736,66,2157550664,2161254065,2174597603,2159183789,1438,0,-11,58423
1341673975,6469,16.0900001525878900,9.6076002120971680,35.0172004699707000,380.0361938476562500,629.1519775390625000,9.3963680267333980,30.7939605712890620,116,3,604,835,66,2163711981,2168234989,2183568045,2163494975,1150,0,-12,24013
1341674048,6469,14.3599996566772460,10.0306997299194340,35.0379981994628900,378.7529907226562500,610.4575805664062000,10.0162801742553710,30.5328807830810550,148,3,578,675,65,2168262678,2173353188,2189772301,2166609659,757,1,-12,47385
1341674151,6470,11.6199998855590820,11.0499000549316400,35.0486984252929700,367.5625000000000000,580.5209960937500000,11.0011901855468750,30.3990898132324220,110,3,484,748,65,2182555849,2189488776,2209302175,2176951917,1025,2,-10,50140
1341674213,6470,9.6400003433227540,11.0749998092651370,35.0559005737304700,365.6525878906250000,578.5070800781250000,11.0671195983886720,30.4258899688720700,114,3,439,738,62,2198100438,2206666700,2229273974,2188083528,195,2,-3,22589
1341674292,6471,6.1799998283386230,11.0922002792358400,35.0553016662597660,364.4165954589844000,577.7113037109375000,11.0931596755981450,30.4511604309082030,124,3,274,688,60,2246196287,2257049526,2279788228,2222718290,2350,-1,-9,53396
1341674357,6468,35.0000000000000000,0.0000000000000000,0.0000000000000000,364.4635009765625000,577.9091796875000000,11.0866899490356450,30.4527397155761720,126,3,226,689,61,2295788045,2307275222,2324959387,2265519546,1158,-9,-9,55099
1341674384,6469,15.0000000000000000,0.0000000000000000,0.0000000000000000,364.5181884765625000,577.5490722656250000,11.0984697341918950,30.4457206726074220,111,3,179,659,60,2340475318,2351792868,2362735455,2318165512,1223,-19,-7,34355
